Time,TemperatureF,DewpointF,PressureIn,WindDirection,WindDirectionDegrees,WindSpeedMPH,WindSpeedGustMPH,Humidity,HourlyPrecipIn,Conditions,Clouds,dailyrainin,SolarRadiationWatts/m^2,SoftwareType,DateUTC
2013-08-21 00:01:00,76.6,58.7,29.71,NNW,339,2.0,4.0,54,0.00,,,0.00,0,WeatherCatV1.21B27,2013-08-21 06:01:00,
2013-08-21 00:06:00,76.5,58.6,29.71,NNW,339,0.0,0.0,54,0.00,,,0.00,0,WeatherCatV1.21B27,2013-08-21 06:06:00,
2013-08-21 00:11:00,76.2,58.3,29.72,NNW,339,0.0,0.0,54,0.00,,,0.00,0,WeatherCatV1.21B27,2013-08-21 06:11:00,
2013-08-21 00:16:00,76.1,58.2,29.72,NNW,339,0.0,0.0,54,0.00,,,0.00,0,WeatherCatV1.21B27,2013-08-21 06:16:00,
2013-08-21 00:21:00,76.0,58.7,29.71,NNW,339,0.0,0.0,55,0.00,,,0.00,0,WeatherCatV1.21B27,2013-08-21 06:21:00,
2013-08-21 00:26:00,75.8,59.0,29.72,NNW,339,0.0,0.0,56,0.00,,,0.00,0,WeatherCatV1.21B27,2013-08-21 06:26:00,
2013-08-21 00:31:00,75.6,58.3,29.72,NNW,339,0.0,0.0,55,0.00,,,0.00,0,WeatherCatV1.21B27,2013-08-21 06:31:00,
2013-08-21 00:36:00,75.4,57.6,29.72,NNW,339,0.0,0.0,54,0.00,,,0.00,0,WeatherCatV1.21B27,2013-08-21 06:36:00,
2013-08-21 00:41:00,75.4,57.6,29.72,NNW,339,0.0,0.0,54,0.00,,,0.00,0,WeatherCatV1.21B27,2013-08-21 06:41:00,
2013-08-21 00:46:00,75.4,58.1,29.72,NNW,339,0.0,0.0,55,0.00,,,0.00,0,WeatherCatV1.21B27,2013-08-21 06:46:00,
2013-08-21 00:51:00,75.4,58.1,29.72,NNW,338,0.0,3.0,55,0.00,,,0.00,0,WeatherCatV1.21B27,2013-08-21 06:51:00,
2013-08-21 00:56:00,75.4,58.1,29.72,NW,307,0.0,0.0,55,0.00,,,0.00,0,WeatherCatV1.21B27,2013-08-21 06:56:00,
2013-08-21 01:01:00,75.3,58.0,29.72,NW,306,0.0,0.0,55,0.00,,,0.00,0,WeatherCatV1.21B27,2013-08-21 07:01:00,
2013-08-21 01:06:00,75.2,57.9,29.72,NW,306,0.0,0.0,55,0.00,,,0.00,0,WeatherCatV1.21B27,2013-08-21 07:06:00,
2013-08-21 01:11:00,75.0,58.2,29.73,NW,306,0.0,0.0,56,0.00,,,0.00,0,WeatherCatV1.21B27,2013-08-21 07:11:00,
2013-08-21 01:16:00,74.8,58.0,29.73,NW,306,0.0,0.0,56,0.00,,,0.00,0,WeatherCatV1.21B27,2013-08-21 07:16:00,
2013-08-21 01:21:00,74.7,58.4,29.73,NW,306,0.0,0.0,57,0.00,,,0.00,0,WeatherCatV1.21B27,2013-08-21 07:21:00,
2013-08-21 01:26:00,74.6,58.3,29.73,NNW,336,1.0,3.0,57,0.00,,,0.00,0,WeatherCatV1.21B27,2013-08-21 07:26:00,
2013-08-21 01:31:00,74.6,58.3,29.73,NNW,346,0.0,2.0,57,0.00,,,0.00,0,WeatherCatV1.21B27,2013-08-21 07:31:00,
2013-08-21 01:36:00,74.5,58.2,29.73,NNW,347,0.0,0.0,57,0.00,,,0.00,0,WeatherCatV1.21B27,2013-08-21 07:36:00,
2013-08-21 01:41:00,74.4,58.6,29.73,NNW,347,0.0,0.0,58,0.00,,,0.00,0,WeatherCatV1.21B27,2013-08-21 07:41:00,
2013-08-21 01:46:00,74.3,58.5,29.73,NNW,347,0.0,0.0,58,0.00,,,0.00,0,WeatherCatV1.21B27,2013-08-21 07:46:00,
2013-08-21 01:51:00,74.1,59.3,29.73,NNW,347,0.0,0.0,60,0.00,,,0.00,0,WeatherCatV1.21B27,2013-08-21 07:51:00,
2013-08-21 01:56:00,73.7,58.9,29.73,NNW,346,0.0,0.0,60,0.00,,,0.00,0,WeatherCatV1.21B27,2013-08-21 07:56:00,
2013-08-21 02:01:00,73.5,58.8,29.73,NNW,346,0.0,0.0,60,0.00,,,0.00,0,WeatherCatV1.21B27,2013-08-21 08:01:00,
2013-08-21 02:06:00,73.3,59.0,29.73,North,355,0.0,0.0,61,0.00,,,0.00,0,WeatherCatV1.21B27,2013-08-21 08:06:00,
2013-08-21 02:11:00,73.2,58.9,29.73,NNE,13,0.0,0.0,61,0.00,,,0.00,0,WeatherCatV1.21B27,2013-08-21 08:11:00,
2013-08-21 02:16:00,73.1,58.8,29.73,NNE,13,0.0,0.0,61,0.00,,,0.00,0,WeatherCatV1.21B27,2013-08-21 08:16:00,
2013-08-21 02:21:00,73.0,58.7,29.73,NNE,14,0.0,0.0,61,0.00,,,0.00,0,WeatherCatV1.21B27,2013-08-21 08:21:00,
2013-08-21 02:26:00,72.9,58.7,29.73,NE,56,1.0,5.0,61,0.00,,,0.00,0,WeatherCatV1.21B27,2013-08-21 08:26:00,
2013-08-21 02:31:00,73.0,58.3,29.73,NE,55,0.0,0.0,60,0.00,,,0.00,0,WeatherCatV1.21B27,2013-08-21 08:31:00,
2013-08-21 02:36:00,73.1,58.4,29.73,NE,55,0.0,0.0,60,0.00,,,0.00,0,WeatherCatV1.21B27,2013-08-21 08:36:00,
2013-08-21 02:41:00,73.0,59.2,29.73,NE,55,0.0,0.0,62,0.00,,,0.00,0,WeatherCatV1.21B27,2013-08-21 08:41:00,
2013-08-21 02:46:00,72.6,58.8,29.73,NE,55,0.0,0.0,62,0.00,,,0.00,0,WeatherCatV1.21B27,2013-08-21 08:46:00,
2013-08-21 02:51:00,72.0,58.7,29.73,NE,55,0.0,0.0,63,0.00,,,0.00,0,WeatherCatV1.21B27,2013-08-21 08:51:00,
2013-08-21 02:56:00,71.7,59.3,29.73,NE,55,0.0,0.0,65,0.00,,,0.00,0,WeatherCatV1.21B27,2013-08-21 08:56:00,
2013-08-21 03:01:00,71.4,59.0,29.72,NE,55,0.0,0.0,65,0.00,,,0.00,0,WeatherCatV1.21B27,2013-08-21 09:01:00,
2013-08-21 03:06:00,71.0,59.1,29.73,NE,55,0.0,0.0,66,0.00,,,0.00,0,WeatherCatV1.21B27,2013-08-21 09:06:00,
2013-08-21 03:11:00,70.6,59.1,29.73,NE,55,0.0,0.0,67,0.00,,,0.00,0,WeatherCatV1.21B27,2013-08-21 09:11:00,
2013-08-21 03:16:00,70.2,59.1,29.73,NE,55,0.0,0.0,68,0.00,,,0.00,0,WeatherCatV1.21B27,2013-08-21 09:16:00,
2013-08-21 03:21:00,70.0,58.9,29.72,NE,55,0.0,0.0,68,0.00,,,0.00,0,WeatherCatV1.21B27,2013-08-21 09:21:00,
2013-08-21 03:26:00,69.7,59.1,29.72,NE,55,0.0,0.0,69,0.00,,,0.00,0,WeatherCatV1.21B27,2013-08-21 09:26:00,
2013-08-21 03:31:00,69.4,59.6,29.73,NE,55,0.0,0.0,71,0.00,,,0.00,0,WeatherCatV1.21B27,2013-08-21 09:31:00,
2013-08-21 03:36:00,69.1,59.3,29.73,NE,55,0.0,0.0,71,0.00,,,0.00,0,WeatherCatV1.21B27,2013-08-21 09:36:00,
2013-08-21 03:41:00,68.8,59.0,29.73,NE,55,0.0,0.0,71,0.00,,,0.00,0,WeatherCatV1.21B27,2013-08-21 09:41:00,
2013-08-21 03:46:00,68.6,59.2,29.73,NE,55,0.0,0.0,72,0.00,,,0.00,0,WeatherCatV1.21B27,2013-08-21 09:46:00,
2013-08-21 03:51:00,68.5,59.1,29.73,NE,55,0.0,0.0,72,0.00,,,0.00,0,WeatherCatV1.21B27,2013-08-21 09:51:00,
2013-08-21 03:56:00,68.3,59.3,29.73,NE,55,0.0,0.0,73,0.00,,,0.00,0,WeatherCatV1.21B27,2013-08-21 09:56:00,
2013-08-21 04:02:00,68.1,59.1,29.73,NE,55,0.0,0.0,73,0.00,,,0.00,0,WeatherCatV1.21B27,2013-08-21 10:02:00,
2013-08-21 04:07:00,68.1,59.5,29.73,NE,55,0.0,0.0,74,0.00,,,0.00,0,WeatherCatV1.21B27,2013-08-21 10:07:00,
2013-08-21 04:12:00,68.0,59.0,29.73,NE,55,0.0,0.0,73,0.00,,,0.00,0,WeatherCatV1.21B27,2013-08-21 10:12:00,
2013-08-21 04:17:00,68.1,59.1,29.73,NE,55,0.0,0.0,73,0.00,,,0.00,0,WeatherCatV1.21B27,2013-08-21 10:17:00,
2013-08-21 04:22:00,68.2,59.2,29.73,NE,55,0.0,0.0,73,0.00,,,0.00,0,WeatherCatV1.21B27,2013-08-21 10:22:00,
2013-08-21 04:27:00,68.3,59.3,29.73,NE,55,0.0,0.0,73,0.00,,,0.00,0,WeatherCatV1.21B27,2013-08-21 10:27:00,
2013-08-21 04:32:00,68.2,59.2,29.73,NE,55,0.0,0.0,73,0.00,,,0.00,0,WeatherCatV1.21B27,2013-08-21 10:32:00,
2013-08-21 04:37:00,68.0,59.4,29.73,NE,55,0.0,0.0,74,0.00,,,0.00,0,WeatherCatV1.21B27,2013-08-21 10:37:00,
2013-08-21 04:42:00,67.9,59.7,29.73,NE,55,0.0,0.0,75,0.00,,,0.00,0,WeatherCatV1.21B27,2013-08-21 10:42:00,
2013-08-21 04:47:00,67.9,59.7,29.73,NE,55,0.0,0.0,75,0.00,,,0.00,0,WeatherCatV1.21B27,2013-08-21 10:47:00,
2013-08-21 04:52:00,67.8,59.6,29.73,NE,55,0.0,0.0,75,0.00,,,0.00,0,WeatherCatV1.21B27,2013-08-21 10:52:00,
2013-08-21 04:57:00,67.6,59.4,29.73,NE,55,0.0,0.0,75,0.00,,,0.00,0,WeatherCatV1.21B27,2013-08-21 10:57:00,
2013-08-21 05:02:00,67.5,59.7,29.73,NE,55,0.0,0.0,76,0.00,,,0.00,0,WeatherCatV1.21B27,2013-08-21 11:02:00,
2013-08-21 05:07:00,67.3,59.8,29.73,NE,55,0.0,0.0,77,0.00,,,0.00,0,WeatherCatV1.21B27,2013-08-21 11:07:00,
2013-08-21 05:12:00,67.2,59.7,29.73,NE,55,0.0,0.0,77,0.00,,,0.00,0,WeatherCatV1.21B27,2013-08-21 11:12:00,
2013-08-21 05:17:00,67.0,59.5,29.73,NE,55,0.0,0.0,77,0.00,,,0.00,0,WeatherCatV1.21B27,2013-08-21 11:17:00,
2013-08-21 05:22:00,66.8,59.3,29.73,NE,55,0.0,0.0,77,0.00,,,0.00,0,WeatherCatV1.21B27,2013-08-21 11:22:00,
2013-08-21 05:27:00,66.7,59.6,29.73,NE,55,0.0,0.0,78,0.00,,,0.00,0,WeatherCatV1.21B27,2013-08-21 11:27:00,
2013-08-21 05:32:00,66.6,59.9,29.73,NE,55,0.0,0.0,79,0.00,,,0.00,0,WeatherCatV1.21B27,2013-08-21 11:32:00,
2013-08-21 05:37:00,66.4,59.7,29.74,NE,55,0.0,0.0,79,0.00,,,0.00,0,WeatherCatV1.21B27,2013-08-21 11:37:00,
2013-08-21 05:42:00,66.4,59.7,29.74,NE,55,0.0,0.0,79,0.00,,,0.00,0,WeatherCatV1.21B27,2013-08-21 11:42:00,
2013-08-21 05:47:00,66.3,59.6,29.74,NE,55,0.0,0.0,79,0.00,,,0.00,0,WeatherCatV1.21B27,2013-08-21 11:47:00,
2013-08-21 05:52:00,66.3,59.9,29.74,NE,55,0.0,0.0,80,0.00,,,0.00,0,WeatherCatV1.21B27,2013-08-21 11:52:00,
2013-08-21 05:57:00,66.3,59.9,29.74,NE,55,0.0,0.0,80,0.00,,,0.00,0,WeatherCatV1.21B27,2013-08-21 11:57:00,
2013-08-21 06:02:00,66.2,60.2,29.74,NE,55,0.0,0.0,81,0.00,,,0.00,0,WeatherCatV1.21B27,2013-08-21 12:02:00,
2013-08-21 06:07:00,65.9,59.9,29.74,NE,55,0.0,0.0,81,0.00,,,0.00,0,WeatherCatV1.21B27,2013-08-21 12:07:00,
2013-08-21 06:12:00,65.8,59.8,29.74,NE,55,0.0,0.0,81,0.00,,,0.00,0,WeatherCatV1.21B27,2013-08-21 12:12:00,
2013-08-21 06:17:00,65.7,59.3,29.74,NE,55,0.0,0.0,80,0.00,,,0.00,0,WeatherCatV1.21B27,2013-08-21 12:17:00,
2013-08-21 06:22:00,65.8,59.5,29.74,NE,55,0.0,0.0,80,0.00,,,0.00,0,WeatherCatV1.21B27,2013-08-21 12:22:00,
2013-08-21 06:27:00,65.9,59.5,29.74,NE,55,0.0,0.0,80,0.00,,,0.00,0,WeatherCatV1.21B27,2013-08-21 12:27:00,
2013-08-21 06:32:00,65.9,59.5,29.74,NE,55,0.0,0.0,80,0.00,,,0.00,0,WeatherCatV1.21B27,2013-08-21 12:32:00,
2013-08-21 06:37:00,66.0,59.3,29.74,NE,55,0.0,0.0,79,0.00,,,0.00,0,WeatherCatV1.21B27,2013-08-21 12:37:00,
2013-08-21 06:42:00,66.1,59.4,29.75,NE,55,0.0,0.0,79,0.00,,,0.00,5,WeatherCatV1.21B27,2013-08-21 12:42:00,
2013-08-21 06:47:00,66.3,59.6,29.75,NE,55,0.0,0.0,79,0.00,,,0.00,9,WeatherCatV1.21B27,2013-08-21 12:47:00,
2013-08-21 06:52:00,66.3,58.9,29.75,NE,56,0.0,0.0,77,0.00,,,0.00,12,WeatherCatV1.21B27,2013-08-21 12:52:00,
2013-08-21 06:57:00,66.5,59.1,29.75,NE,56,0.0,0.0,77,0.00,,,0.00,18,WeatherCatV1.21B27,2013-08-21 12:57:00,
2013-08-21 07:02:00,66.8,59.0,29.75,NE,56,0.0,0.0,76,0.00,,,0.00,25,WeatherCatV1.21B27,2013-08-21 13:02:00,
2013-08-21 07:07:00,67.2,59.0,29.75,NE,56,0.0,0.0,75,0.00,,,0.00,33,WeatherCatV1.21B27,2013-08-21 13:07:00,
2013-08-21 07:12:00,67.6,59.4,29.75,NE,56,0.0,0.0,75,0.00,,,0.00,40,WeatherCatV1.21B27,2013-08-21 13:12:00,
2013-08-21 07:17:00,68.2,59.2,29.75,NE,56,2.0,3.0,73,0.00,,,0.00,51,WeatherCatV1.21B27,2013-08-21 13:17:00,
2013-08-21 07:22:00,68.9,59.5,29.76,ENE,61,0.0,0.0,72,0.00,,,0.00,65,WeatherCatV1.21B27,2013-08-21 13:22:00,
2013-08-21 07:27:00,69.4,59.6,29.76,ENE,61,0.0,0.0,71,0.00,,,0.00,79,WeatherCatV1.21B27,2013-08-21 13:27:00,
2013-08-21 07:32:00,69.8,59.6,29.76,ENE,62,0.0,0.0,70,0.00,,,0.00,95,WeatherCatV1.21B27,2013-08-21 13:32:00,
2013-08-21 07:37:00,69.9,59.2,29.76,East,92,0.0,0.0,69,0.00,,,0.00,113,WeatherCatV1.21B27,2013-08-21 13:37:00,
2013-08-21 07:42:00,70.2,59.9,29.76,East,92,0.0,0.0,70,0.00,,,0.00,127,WeatherCatV1.21B27,2013-08-21 13:42:00,
2013-08-21 07:47:00,70.6,59.9,29.76,East,92,0.0,0.0,69,0.00,,,0.00,141,WeatherCatV1.21B27,2013-08-21 13:47:00,
2013-08-21 07:52:00,71.1,59.6,29.76,East,92,0.0,0.0,67,0.00,,,0.00,158,WeatherCatV1.21B27,2013-08-21 13:52:00,
2013-08-21 07:57:00,71.8,60.2,29.77,East,92,0.0,0.0,67,0.00,,,0.00,172,WeatherCatV1.21B27,2013-08-21 13:57:00,
2013-08-21 08:02:00,72.9,60.4,29.76,East,92,0.0,0.0,65,0.00,,,0.00,186,WeatherCatV1.21B27,2013-08-21 14:02:00,
2013-08-21 08:07:00,73.7,60.8,29.76,East,92,0.0,0.0,64,0.00,,,0.00,202,WeatherCatV1.21B27,2013-08-21 14:07:00,
2013-08-21 08:12:00,74.0,60.1,29.77,East,92,0.0,0.0,62,0.00,,,0.00,218,WeatherCatV1.21B27,2013-08-21 14:12:00,
2013-08-21 08:17:00,74.2,59.9,29.77,SE,142,1.0,2.0,61,0.00,,,0.00,232,WeatherCatV1.21B27,2013-08-21 14:17:00,
2013-08-21 08:22:00,74.1,59.8,29.77,South,176,0.0,1.0,61,0.00,,,0.00,243,WeatherCatV1.21B27,2013-08-21 14:22:00,
2013-08-21 08:27:00,74.2,60.3,29.77,ESE,115,0.0,1.0,62,0.00,,,0.00,258,WeatherCatV1.21B27,2013-08-21 14:27:00,
2013-08-21 08:32:00,74.3,60.0,29.77,SE,137,0.0,1.0,61,0.00,,,0.00,278,WeatherCatV1.21B27,2013-08-21 14:32:00,
2013-08-21 08:37:00,74.3,59.5,29.77,NW,308,1.0,2.0,60,0.00,,,0.00,297,WeatherCatV1.21B27,2013-08-21 14:37:00,
2013-08-21 08:42:00,74.4,60.1,29.77,NW,308,1.0,2.0,61,0.00,,,0.00,313,WeatherCatV1.21B27,2013-08-21 14:42:00,
2013-08-21 08:47:00,74.8,60.4,29.77,NW,308,0.0,1.0,61,0.00,,,0.00,332,WeatherCatV1.21B27,2013-08-21 14:47:00,
2013-08-21 08:52:00,75.1,59.8,29.77,NW,308,0.0,0.0,59,0.00,,,0.00,350,WeatherCatV1.21B27,2013-08-21 14:52:00,
2013-08-21 08:57:00,75.4,60.5,29.77,NW,308,0.0,0.0,60,0.00,,,0.00,366,WeatherCatV1.21B27,2013-08-21 14:57:00,
2013-08-21 09:02:00,76.0,60.1,29.77,NW,308,0.0,0.0,58,0.00,,,0.00,376,WeatherCatV1.21B27,2013-08-21 15:02:00,
2013-08-21 09:07:00,76.6,59.7,29.77,NW,308,0.0,1.0,56,0.00,,,0.00,396,WeatherCatV1.21B27,2013-08-21 15:07:00,
2013-08-21 09:12:00,76.9,60.0,29.77,NW,308,0.0,0.0,56,0.00,,,0.00,413,WeatherCatV1.21B27,2013-08-21 15:12:00,
2013-08-21 09:17:00,77.3,59.8,29.77,NW,308,0.0,0.0,55,0.00,,,0.00,427,WeatherCatV1.21B27,2013-08-21 15:17:00,
2013-08-21 09:22:00,77.7,59.2,29.77,NW,307,0.0,2.0,53,0.00,,,0.00,443,WeatherCatV1.21B27,2013-08-21 15:22:00,
2013-08-21 09:27:00,78.1,59.0,29.77,NW,307,0.0,1.0,52,0.00,,,0.00,452,WeatherCatV1.21B27,2013-08-21 15:27:00,
2013-08-21 09:32:00,78.8,58.6,29.78,WSW,238,3.0,5.0,50,0.00,,,0.00,468,WeatherCatV1.21B27,2013-08-21 15:32:00,
2013-08-21 09:37:00,79.3,59.0,29.78,WSW,249,4.0,4.0,50,0.00,,,0.00,482,WeatherCatV1.21B27,2013-08-21 15:37:00,
2013-08-21 09:42:00,79.6,59.3,29.78,WSW,250,0.0,2.0,50,0.00,,,0.00,494,WeatherCatV1.21B27,2013-08-21 15:42:00,
2013-08-21 09:47:00,80.1,59.2,29.78,WSW,251,0.0,0.0,49,0.00,,,0.00,508,WeatherCatV1.21B27,2013-08-21 15:47:00,
2013-08-21 09:52:00,80.7,59.7,29.78,WSW,251,0.0,2.0,49,0.00,,,0.00,522,WeatherCatV1.21B27,2013-08-21 15:52:00,
2013-08-21 09:57:00,81.3,60.3,29.78,WSW,251,0.0,0.0,49,0.00,,,0.00,536,WeatherCatV1.21B27,2013-08-21 15:57:00,
2013-08-21 10:02:00,81.6,60.0,29.78,WSW,255,1.0,2.0,48,0.00,,,0.00,548,WeatherCatV1.21B27,2013-08-21 16:02:00,
2013-08-21 10:07:00,81.7,59.5,29.78,WSW,257,0.0,3.0,47,0.00,,,0.00,561,WeatherCatV1.21B27,2013-08-21 16:07:00,
2013-08-21 10:12:00,81.9,59.7,29.78,West,275,0.0,2.0,47,0.00,,,0.00,571,WeatherCatV1.21B27,2013-08-21 16:12:00,
2013-08-21 10:17:00,82.3,59.4,29.78,West,277,0.0,1.0,46,0.00,,,0.00,585,WeatherCatV1.21B27,2013-08-21 16:17:00,
2013-08-21 10:22:00,83.0,58.8,29.78,SSE,156,0.0,0.0,44,0.00,,,0.00,598,WeatherCatV1.21B27,2013-08-21 16:22:00,
2013-08-21 10:27:00,83.9,59.0,29.78,SSE,159,0.0,0.0,43,0.00,,,0.00,617,WeatherCatV1.21B27,2013-08-21 16:27:00,
2013-08-21 10:32:00,84.5,59.5,29.77,SSE,167,0.0,0.0,43,0.00,,,0.00,626,WeatherCatV1.21B27,2013-08-21 16:32:00,
2013-08-21 10:37:00,85.0,58.6,29.77,ESE,121,2.0,5.0,41,0.00,,,0.00,638,WeatherCatV1.21B27,2013-08-21 16:37:00,
2013-08-21 10:42:00,85.7,59.2,29.77,South,190,0.0,0.0,41,0.00,,,0.00,649,WeatherCatV1.21B27,2013-08-21 16:42:00,
2013-08-21 10:47:00,86.1,57.5,29.77,SW,231,2.0,8.0,38,0.00,,,0.00,661,WeatherCatV1.21B27,2013-08-21 16:47:00,
2013-08-21 10:52:00,87.3,54.6,29.78,SE,131,4.0,8.0,33,0.00,,,0.00,673,WeatherCatV1.21B27,2013-08-21 16:52:00,
2013-08-21 10:57:00,88.1,53.6,29.77,South,171,0.0,2.0,31,0.00,,,0.00,684,WeatherCatV1.21B27,2013-08-21 16:57:00,
2013-08-21 11:02:00,88.8,54.2,29.77,South,190,2.0,7.0,31,0.00,,,0.00,698,WeatherCatV1.21B27,2013-08-21 17:02:00,
2013-08-21 11:07:00,89.2,52.7,29.77,SE,142,0.0,8.0,29,0.00,,,0.00,710,WeatherCatV1.21B27,2013-08-21 17:07:00,
2013-08-21 11:12:00,89.6,53.1,29.77,SE,124,2.0,8.0,29,0.00,,,0.00,721,WeatherCatV1.21B27,2013-08-21 17:12:00,
2013-08-21 11:17:00,89.8,53.3,29.77,SSE,150,7.0,11.0,29,0.00,,,0.00,729,WeatherCatV1.21B27,2013-08-21 17:17:00,
2013-08-21 11:22:00,90.2,53.6,29.77,SSE,159,7.0,9.0,29,0.00,,,0.00,740,WeatherCatV1.21B27,2013-08-21 17:22:00,
2013-08-21 11:27:00,90.0,53.4,29.77,SE,146,9.0,10.0,29,0.00,,,0.00,751,WeatherCatV1.21B27,2013-08-21 17:27:00,
2013-08-21 11:32:00,90.2,54.5,29.77,SSE,159,4.0,9.0,30,0.00,,,0.00,759,WeatherCatV1.21B27,2013-08-21 17:32:00,
2013-08-21 11:37:00,90.2,53.6,29.77,SSE,157,4.0,9.0,29,0.00,,,0.00,763,WeatherCatV1.21B27,2013-08-21 17:37:00,
2013-08-21 11:42:00,90.4,53.8,29.77,SE,130,9.0,10.0,29,0.00,,,0.00,773,WeatherCatV1.21B27,2013-08-21 17:42:00,
2013-08-21 11:47:00,90.6,53.9,29.77,ESE,123,12.0,12.0,29,0.00,,,0.00,777,WeatherCatV1.21B27,2013-08-21 17:47:00,
2013-08-21 11:52:00,90.4,52.8,29.77,South,180,6.0,12.0,28,0.00,,,0.00,784,WeatherCatV1.21B27,2013-08-21 17:52:00,
2013-08-21 11:57:00,90.2,53.6,29.76,SSE,157,7.0,7.0,29,0.00,,,0.00,789,WeatherCatV1.21B27,2013-08-21 17:57:00,
2013-08-21 12:02:00,90.6,53.0,29.77,SSE,154,9.0,14.0,28,0.00,,,0.00,800,WeatherCatV1.21B27,2013-08-21 18:02:00,
2013-08-21 12:07:00,90.5,52.9,29.77,South,183,4.0,8.0,28,0.00,,,0.00,800,WeatherCatV1.21B27,2013-08-21 18:07:00,
2013-08-21 12:12:00,91.1,53.4,29.77,South,182,10.0,12.0,28,0.00,,,0.00,809,WeatherCatV1.21B27,2013-08-21 18:12:00,
2013-08-21 12:17:00,91.3,53.6,29.76,South,179,2.0,8.0,28,0.00,,,0.00,816,WeatherCatV1.21B27,2013-08-21 18:17:00,
2013-08-21 12:22:00,91.3,52.6,29.76,South,178,2.0,10.0,27,0.00,,,0.00,816,WeatherCatV1.21B27,2013-08-21 18:22:00,
2013-08-21 12:27:00,91.3,53.6,29.76,South,171,6.0,8.0,28,0.00,,,0.00,824,WeatherCatV1.21B27,2013-08-21 18:27:00,
2013-08-21 12:32:00,91.6,52.8,29.76,ESE,109,4.0,9.0,27,0.00,,,0.00,826,WeatherCatV1.21B27,2013-08-21 18:32:00,
2013-08-21 12:37:00,91.9,53.1,29.76,SSE,167,7.0,12.0,27,0.00,,,0.00,833,WeatherCatV1.21B27,2013-08-21 18:37:00,
2013-08-21 12:42:00,91.7,52.9,29.76,SSE,154,8.0,8.0,27,0.00,,,0.00,831,WeatherCatV1.21B27,2013-08-21 18:42:00,
2013-08-21 12:47:00,92.0,53.2,29.76,SE,138,10.0,12.0,27,0.00,,,0.00,838,WeatherCatV1.21B27,2013-08-21 18:47:00,
2013-08-21 12:52:00,92.5,52.6,29.76,SSE,154,8.0,13.0,26,0.00,,,0.00,837,WeatherCatV1.21B27,2013-08-21 18:52:00,
2013-08-21 12:57:00,92.4,52.5,29.76,SE,130,5.0,11.0,26,0.00,,,0.00,838,WeatherCatV1.21B27,2013-08-21 18:57:00,
2013-08-21 13:02:00,92.6,52.7,29.75,SE,141,8.0,12.0,26,0.00,,,0.00,842,WeatherCatV1.21B27,2013-08-21 19:02:00,
2013-08-21 13:07:00,92.8,52.8,29.75,SE,144,6.0,11.0,26,0.00,,,0.00,846,WeatherCatV1.21B27,2013-08-21 19:07:00,
2013-08-21 13:12:00,93.1,52.0,29.75,SSW,194,4.0,10.0,25,0.00,,,0.00,846,WeatherCatV1.21B27,2013-08-21 19:12:00,
2013-08-21 13:17:00,92.9,51.8,29.75,South,174,2.0,8.0,25,0.00,,,0.00,847,WeatherCatV1.21B27,2013-08-21 19:17:00,
2013-08-21 13:22:00,93.1,52.0,29.75,SE,143,6.0,10.0,25,0.00,,,0.00,846,WeatherCatV1.21B27,2013-08-21 19:22:00,
2013-08-21 13:27:00,93.6,51.3,29.75,SSE,162,4.0,4.0,24,0.00,,,0.00,844,WeatherCatV1.21B27,2013-08-21 19:27:00,
2013-08-21 13:32:00,94.1,51.7,29.75,SE,125,11.0,11.0,24,0.00,,,0.00,846,WeatherCatV1.21B27,2013-08-21 19:32:00,
2013-08-21 13:37:00,94.1,51.7,29.74,SSE,161,7.0,9.0,24,0.00,,,0.00,849,WeatherCatV1.21B27,2013-08-21 19:37:00,
2013-08-21 13:42:00,93.9,52.7,29.74,SSW,201,3.0,8.0,25,0.00,,,0.00,847,WeatherCatV1.21B27,2013-08-21 19:42:00,
2013-08-21 13:47:00,94.1,51.7,29.74,ESE,122,4.0,11.0,24,0.00,,,0.00,844,WeatherCatV1.21B27,2013-08-21 19:47:00,
2013-08-21 13:52:00,94.3,51.9,29.74,East,101,5.0,8.0,24,0.00,,,0.00,833,WeatherCatV1.21B27,2013-08-21 19:52:00,
2013-08-21 13:57:00,94.0,54.9,29.74,South,188,7.0,10.0,27,0.00,,,0.00,828,WeatherCatV1.21B27,2013-08-21 19:57:00,
2013-08-21 14:02:00,93.7,55.6,29.73,SW,232,2.0,5.0,28,0.00,,,0.00,835,WeatherCatV1.21B27,2013-08-21 20:02:00,
2013-08-21 14:07:00,93.8,55.7,29.73,SW,227,6.0,12.0,28,0.00,,,0.00,853,WeatherCatV1.21B27,2013-08-21 20:07:00,
2013-08-21 14:12:00,93.8,55.7,29.73,South,180,6.0,10.0,28,0.00,,,0.00,865,WeatherCatV1.21B27,2013-08-21 20:12:00,
2013-08-21 14:17:00,94.6,55.4,29.73,South,185,8.0,8.0,27,0.00,,,0.00,826,WeatherCatV1.21B27,2013-08-21 20:17:00,
2013-08-21 14:22:00,94.7,55.5,29.72,South,186,2.0,5.0,27,0.00,,,0.00,823,WeatherCatV1.21B27,2013-08-21 20:22:00,
2013-08-21 14:27:00,94.5,55.3,29.72,South,190,4.0,10.0,27,0.00,,,0.00,800,WeatherCatV1.21B27,2013-08-21 20:27:00,
2013-08-21 14:32:00,94.5,55.3,29.72,SW,222,10.0,10.0,27,0.00,,,0.00,819,WeatherCatV1.21B27,2013-08-21 20:32:00,
2013-08-21 14:37:00,94.2,55.0,29.72,SSW,207,4.0,10.0,27,0.00,,,0.00,831,WeatherCatV1.21B27,2013-08-21 20:37:00,
2013-08-21 14:42:00,94.3,55.1,29.71,South,171,4.0,9.0,27,0.00,,,0.00,793,WeatherCatV1.21B27,2013-08-21 20:42:00,
2013-08-21 14:47:00,94.1,55.0,29.72,SW,235,6.0,14.0,27,0.00,,,0.00,795,WeatherCatV1.21B27,2013-08-21 20:47:00,
2013-08-21 14:52:00,94.4,55.2,29.71,SW,229,3.0,12.0,27,0.00,,,0.00,828,WeatherCatV1.21B27,2013-08-21 20:52:00,
2013-08-21 14:57:00,94.6,54.3,29.71,SW,221,5.0,11.0,26,0.00,,,0.00,828,WeatherCatV1.21B27,2013-08-21 20:57:00,
2013-08-21 15:02:00,94.9,54.6,29.71,SSW,213,3.0,10.0,26,0.00,,,0.00,761,WeatherCatV1.21B27,2013-08-21 21:02:00,
2013-08-21 15:07:00,95.1,52.6,29.71,South,180,10.0,12.0,24,0.00,,,0.00,772,WeatherCatV1.21B27,2013-08-21 21:07:00,
2013-08-21 15:12:00,95.0,53.6,29.70,SSE,159,5.0,10.0,25,0.00,,,0.00,749,WeatherCatV1.21B27,2013-08-21 21:12:00,
2013-08-21 15:17:00,95.4,52.8,29.70,SSW,198,8.0,10.0,24,0.00,,,0.00,719,WeatherCatV1.21B27,2013-08-21 21:17:00,
2013-08-21 15:22:00,95.3,50.4,29.70,SSW,211,7.0,12.0,22,0.00,,,0.00,721,WeatherCatV1.21B27,2013-08-21 21:22:00,
2013-08-21 15:27:00,95.6,49.4,29.70,South,170,5.0,13.0,21,0.00,,,0.00,710,WeatherCatV1.21B27,2013-08-21 21:27:00,
2013-08-21 15:32:00,95.3,51.6,29.69,SSE,167,6.0,12.0,23,0.00,,,0.00,700,WeatherCatV1.21B27,2013-08-21 21:32:00,
2013-08-21 15:37:00,95.3,51.6,29.69,SSW,196,1.0,6.0,23,0.00,,,0.00,679,WeatherCatV1.21B27,2013-08-21 21:37:00,
2013-08-21 15:42:00,95.5,51.8,29.69,South,187,5.0,6.0,23,0.00,,,0.00,686,WeatherCatV1.21B27,2013-08-21 21:42:00,
2013-08-21 15:47:00,95.6,49.4,29.69,SW,226,3.0,7.0,21,0.00,,,0.00,661,WeatherCatV1.21B27,2013-08-21 21:47:00,
2013-08-21 15:52:00,95.5,49.3,29.69,WSW,248,2.0,7.0,21,0.00,,,0.00,626,WeatherCatV1.21B27,2013-08-21 21:52:00,
2013-08-21 15:57:00,95.7,48.2,29.68,SW,229,5.0,11.0,20,0.00,,,0.00,613,WeatherCatV1.21B27,2013-08-21 21:57:00,
2013-08-21 16:02:00,95.5,48.0,29.68,WSW,242,3.0,8.0,20,0.00,,,0.00,621,WeatherCatV1.21B27,2013-08-21 22:02:00,
2013-08-21 16:07:00,95.7,48.2,29.68,SSE,167,4.0,10.0,20,0.00,,,0.00,606,WeatherCatV1.21B27,2013-08-21 22:07:00,
2013-08-21 16:12:00,95.5,48.0,29.68,WSW,245,1.0,7.0,20,0.00,,,0.00,608,WeatherCatV1.21B27,2013-08-21 22:12:00,
2013-08-21 16:17:00,95.5,49.3,29.67,SSE,166,9.0,10.0,21,0.00,,,0.00,608,WeatherCatV1.21B27,2013-08-21 22:17:00,
2013-08-21 16:22:00,95.6,48.1,29.68,SSW,195,6.0,9.0,20,0.00,,,0.00,589,WeatherCatV1.21B27,2013-08-21 22:22:00,
2013-08-21 16:27:00,95.8,48.2,29.67,SW,226,3.0,8.0,20,0.00,,,0.00,584,WeatherCatV1.21B27,2013-08-21 22:27:00,
2013-08-21 16:32:00,96.1,48.5,29.67,South,176,6.0,7.0,20,0.00,,,0.00,578,WeatherCatV1.21B27,2013-08-21 22:32:00,
2013-08-21 16:37:00,96.0,48.4,29.67,South,187,4.0,9.0,20,0.00,,,0.00,578,WeatherCatV1.21B27,2013-08-21 22:37:00,
2013-08-21 16:42:00,95.9,48.3,29.67,South,176,6.0,10.0,20,0.00,,,0.00,592,WeatherCatV1.21B27,2013-08-21 22:42:00,
2013-08-21 16:47:00,96.2,48.6,29.67,SE,142,4.0,10.0,20,0.00,,,0.00,561,WeatherCatV1.21B27,2013-08-21 22:47:00,
2013-08-21 16:52:00,96.3,48.7,29.67,SSE,168,6.0,10.0,20,0.00,,,0.00,529,WeatherCatV1.21B27,2013-08-21 22:52:00,
2013-08-21 16:57:00,96.1,48.5,29.66,South,187,10.0,11.0,20,0.00,,,0.00,503,WeatherCatV1.21B27,2013-08-21 22:57:00,
2013-08-21 17:02:00,95.6,48.1,29.66,SW,218,6.0,10.0,20,0.00,,,0.00,483,WeatherCatV1.21B27,2013-08-21 23:02:00,
2013-08-21 17:07:00,95.6,46.7,29.66,SSW,203,4.0,10.0,19,0.00,,,0.00,478,WeatherCatV1.21B27,2013-08-21 23:07:00,
2013-08-21 17:12:00,95.3,47.8,29.67,SSE,163,9.0,12.0,20,0.00,,,0.00,452,WeatherCatV1.21B27,2013-08-21 23:12:00,
2013-08-21 17:17:00,95.0,47.6,29.66,South,172,9.0,10.0,20,0.00,,,0.00,445,WeatherCatV1.21B27,2013-08-21 23:17:00,
2013-08-21 17:22:00,95.1,49.0,29.66,SSW,206,6.0,9.0,21,0.00,,,0.00,443,WeatherCatV1.21B27,2013-08-21 23:22:00,
2013-08-21 17:27:00,95.2,49.0,29.66,SSW,207,6.0,11.0,21,0.00,,,0.00,431,WeatherCatV1.21B27,2013-08-21 23:27:00,
2013-08-21 17:32:00,94.9,47.5,29.66,SSW,205,4.0,10.0,20,0.00,,,0.00,411,WeatherCatV1.21B27,2013-08-21 23:32:00,
2013-08-21 17:37:00,95.0,47.6,29.66,SW,215,14.0,14.0,20,0.00,,,0.00,367,WeatherCatV1.21B27,2013-08-21 23:37:00,
2013-08-21 17:42:00,94.6,49.8,29.66,South,187,7.0,11.0,22,0.00,,,0.00,360,WeatherCatV1.21B27,2013-08-21 23:42:00,
2013-08-21 17:47:00,94.4,48.4,29.66,SW,217,5.0,12.0,21,0.00,,,0.00,359,WeatherCatV1.21B27,2013-08-21 23:47:00,
2013-08-21 17:52:00,94.1,49.4,29.66,SSW,210,7.0,10.0,22,0.00,,,0.00,322,WeatherCatV1.21B27,2013-08-21 23:52:00,
2013-08-21 17:57:00,94.0,49.3,29.66,South,184,7.0,13.0,22,0.00,,,0.00,285,WeatherCatV1.21B27,2013-08-21 23:57:00,
2013-08-21 18:02:00,93.7,47.8,29.66,SSW,196,10.0,12.0,21,0.00,,,0.00,271,WeatherCatV1.21B27,2013-08-22 00:02:00,
2013-08-21 18:07:00,93.6,47.7,29.66,SW,232,5.0,8.0,21,0.00,,,0.00,244,WeatherCatV1.21B27,2013-08-22 00:07:00,
2013-08-21 18:12:00,93.4,48.8,29.66,SSE,156,5.0,8.0,22,0.00,,,0.00,218,WeatherCatV1.21B27,2013-08-22 00:12:00,
2013-08-21 18:17:00,93.4,47.6,29.65,SSW,207,2.0,7.0,21,0.00,,,0.00,197,WeatherCatV1.21B27,2013-08-22 00:17:00,
2013-08-21 18:22:00,93.3,48.7,29.65,SSW,198,4.0,9.0,22,0.00,,,0.00,183,WeatherCatV1.21B27,2013-08-22 00:22:00,
2013-08-21 18:27:00,93.1,48.6,29.65,South,171,6.0,6.0,22,0.00,,,0.00,165,WeatherCatV1.21B27,2013-08-22 00:27:00,
2013-08-21 18:32:00,92.8,49.5,29.65,SW,217,2.0,5.0,23,0.00,,,0.00,148,WeatherCatV1.21B27,2013-08-22 00:32:00,
2013-08-21 18:37:00,92.5,48.1,29.65,South,176,5.0,6.0,22,0.00,,,0.00,130,WeatherCatV1.21B27,2013-08-22 00:37:00,
2013-08-21 18:42:00,92.2,50.2,29.65,South,189,5.0,8.0,24,0.00,,,0.00,114,WeatherCatV1.21B27,2013-08-22 00:42:00,
2013-08-21 18:47:00,91.9,49.9,29.66,SSW,204,3.0,4.0,24,0.00,,,0.00,100,WeatherCatV1.21B27,2013-08-22 00:47:00,
2013-08-21 18:52:00,91.7,50.8,29.65,SSW,203,1.0,4.0,25,0.00,,,0.00,84,WeatherCatV1.21B27,2013-08-22 00:52:00,
2013-08-21 18:57:00,91.4,50.6,29.65,South,180,2.0,3.0,25,0.00,,,0.00,49,WeatherCatV1.21B27,2013-08-22 00:57:00,
2013-08-21 19:02:00,91.0,52.3,29.65,South,186,1.0,3.0,27,0.00,,,0.00,53,WeatherCatV1.21B27,2013-08-22 01:02:00,
2013-08-21 19:07:00,90.6,52.0,29.65,South,186,1.0,5.0,27,0.00,,,0.00,49,WeatherCatV1.21B27,2013-08-22 01:07:00,
2013-08-21 19:12:00,90.2,51.7,29.66,South,186,2.0,4.0,27,0.00,,,0.00,39,WeatherCatV1.21B27,2013-08-22 01:12:00,
2013-08-21 19:17:00,89.8,51.3,29.66,South,184,2.0,4.0,27,0.00,,,0.00,28,WeatherCatV1.21B27,2013-08-22 01:17:00,
2013-08-21 19:22:00,89.3,50.9,29.66,South,184,2.0,4.0,27,0.00,,,0.00,18,WeatherCatV1.21B27,2013-08-22 01:22:00,
2013-08-21 19:27:00,88.9,51.5,29.66,South,178,1.0,1.0,28,0.00,,,0.00,11,WeatherCatV1.21B27,2013-08-22 01:27:00,
2013-08-21 19:32:00,88.4,50.1,29.66,South,182,0.0,2.0,27,0.00,,,0.00,5,WeatherCatV1.21B27,2013-08-22 01:32:00,
2013-08-21 19:37:00,87.9,50.7,29.66,South,182,2.0,2.0,28,0.00,,,0.00,0,WeatherCatV1.21B27,2013-08-22 01:37:00,
2013-08-21 19:42:00,87.3,51.1,29.67,South,171,2.0,6.0,29,0.00,,,0.00,0,WeatherCatV1.21B27,2013-08-22 01:42:00,
2013-08-21 19:47:00,87.0,50.9,29.67,South,171,0.0,1.0,29,0.00,,,0.00,0,WeatherCatV1.21B27,2013-08-22 01:47:00,
2013-08-21 19:52:00,86.6,50.5,29.67,South,171,0.0,1.0,29,0.00,,,0.00,0,WeatherCatV1.21B27,2013-08-22 01:52:00,
2013-08-21 19:57:00,86.2,51.1,29.67,South,171,0.0,0.0,30,0.00,,,0.00,0,WeatherCatV1.21B27,2013-08-22 01:57:00,
2013-08-21 20:02:00,85.8,50.8,29.67,South,171,0.0,2.0,30,0.00,,,0.00,0,WeatherCatV1.21B27,2013-08-22 02:02:00,
2013-08-21 20:07:00,85.4,51.3,29.67,South,171,0.0,0.0,31,0.00,,,0.00,0,WeatherCatV1.21B27,2013-08-22 02:07:00,
2013-08-21 20:12:00,84.9,50.0,29.68,South,171,0.0,0.0,30,0.00,,,0.00,0,WeatherCatV1.21B27,2013-08-22 02:12:00,
2013-08-21 20:17:00,84.6,47.9,29.68,SSE,147,5.0,7.0,28,0.00,,,0.00,0,WeatherCatV1.21B27,2013-08-22 02:17:00,
2013-08-21 20:22:00,84.7,46.0,29.68,SE,135,6.0,9.0,26,0.00,,,0.00,0,WeatherCatV1.21B27,2013-08-22 02:22:00,
2013-08-21 20:27:00,85.3,45.5,29.68,ESE,122,2.0,7.0,25,0.00,,,0.00,0,WeatherCatV1.21B27,2013-08-22 02:27:00,
2013-08-21 20:32:00,85.6,45.7,29.69,ESE,113,5.0,9.0,25,0.00,,,0.00,0,WeatherCatV1.21B27,2013-08-22 02:32:00,
2013-08-21 20:37:00,85.9,44.9,29.69,ESE,123,5.0,7.0,24,0.00,,,0.00,0,WeatherCatV1.21B27,2013-08-22 02:37:00,
2013-08-21 20:42:00,86.0,45.0,29.69,SE,126,11.0,11.0,24,0.00,,,0.00,0,WeatherCatV1.21B27,2013-08-22 02:42:00,
2013-08-21 20:47:00,86.1,45.1,29.69,SE,130,4.0,9.0,24,0.00,,,0.00,0,WeatherCatV1.21B27,2013-08-22 02:47:00,
2013-08-21 20:52:00,85.9,44.9,29.69,SE,128,12.0,13.0,24,0.00,,,0.00,0,WeatherCatV1.21B27,2013-08-22 02:52:00,
2013-08-21 20:57:00,85.8,43.7,29.70,SE,130,5.0,12.0,23,0.00,,,0.00,0,WeatherCatV1.21B27,2013-08-22 02:57:00,
2013-08-21 21:02:00,85.7,43.6,29.70,SE,132,4.0,11.0,23,0.00,,,0.00,0,WeatherCatV1.21B27,2013-08-22 03:02:00,
2013-08-21 21:07:00,85.4,43.4,29.70,SE,129,5.0,11.0,23,0.00,,,0.00,0,WeatherCatV1.21B27,2013-08-22 03:07:00,
2013-08-21 21:12:00,85.2,43.2,29.70,ESE,104,7.0,11.0,23,0.00,,,0.00,0,WeatherCatV1.21B27,2013-08-22 03:12:00,
2013-08-21 21:17:00,85.2,43.2,29.70,SSE,147,6.0,12.0,23,0.00,,,0.00,0,WeatherCatV1.21B27,2013-08-22 03:17:00,
2013-08-21 21:22:00,85.1,43.1,29.71,SSE,148,6.0,14.0,23,0.00,,,0.00,0,WeatherCatV1.21B27,2013-08-22 03:22:00,
2013-08-21 21:27:00,85.0,43.0,29.71,ESE,105,8.0,15.0,23,0.00,,,0.00,0,WeatherCatV1.21B27,2013-08-22 03:27:00,
2013-08-21 21:32:00,84.9,41.8,29.72,ESE,113,7.0,12.0,22,0.00,,,0.00,0,WeatherCatV1.21B27,2013-08-22 03:32:00,
2013-08-21 21:37:00,84.8,40.5,29.72,ESE,119,8.0,13.0,21,0.00,,,0.00,0,WeatherCatV1.21B27,2013-08-22 03:37:00,
2013-08-21 21:42:00,84.7,39.2,29.72,SE,143,4.0,16.0,20,0.00,,,0.00,0,WeatherCatV1.21B27,2013-08-22 03:42:00,
2013-08-21 21:47:00,84.5,39.0,29.73,East,101,8.0,11.0,20,0.00,,,0.00,0,WeatherCatV1.21B27,2013-08-22 03:47:00,
2013-08-21 21:52:00,84.4,38.9,29.73,ESE,120,9.0,13.0,20,0.00,,,0.00,0,WeatherCatV1.21B27,2013-08-22 03:52:00,
2013-08-21 21:57:00,84.3,38.8,29.73,ESE,109,6.0,9.0,20,0.00,,,0.00,0,WeatherCatV1.21B27,2013-08-22 03:57:00,
2013-08-21 22:01:00,84.1,38.7,29.73,ESE,121,4.0,12.0,20,0.00,,,0.00,0,WeatherCatV1.21B27,2013-08-22 04:01:00,
2013-08-21 22:06:00,83.9,38.5,29.74,ESE,119,9.0,12.0,20,0.00,,,0.00,0,WeatherCatV1.21B27,2013-08-22 04:06:00,
2013-08-21 22:11:00,83.7,37.0,29.74,SSE,155,8.0,13.0,19,0.00,,,0.00,0,WeatherCatV1.21B27,2013-08-22 04:11:00,
2013-08-21 22:16:00,83.5,36.9,29.74,SE,146,8.0,9.0,19,0.00,,,0.00,0,WeatherCatV1.21B27,2013-08-22 04:16:00,
2013-08-21 22:21:00,83.4,36.8,29.74,SE,146,8.0,12.0,19,0.00,,,0.00,0,WeatherCatV1.21B27,2013-08-22 04:21:00,
2013-08-21 22:26:00,83.4,36.8,29.74,SE,139,7.0,15.0,19,0.00,,,0.00,0,WeatherCatV1.21B27,2013-08-22 04:26:00,
2013-08-21 22:31:00,83.2,35.3,29.75,ESE,119,5.0,12.0,18,0.00,,,0.00,0,WeatherCatV1.21B27,2013-08-22 04:31:00,
2013-08-21 22:36:00,83.1,35.2,29.75,SE,126,8.0,11.0,18,0.00,,,0.00,0,WeatherCatV1.21B27,2013-08-22 04:36:00,
2013-08-21 22:41:00,82.9,36.4,29.75,ESE,117,7.0,8.0,19,0.00,,,0.00,0,WeatherCatV1.21B27,2013-08-22 04:41:00,
2013-08-21 22:46:00,82.7,34.9,29.76,ESE,105,4.0,13.0,18,0.00,,,0.00,0,WeatherCatV1.21B27,2013-08-22 04:46:00,
2013-08-21 22:51:00,82.6,36.1,29.76,SSE,155,11.0,13.0,19,0.00,,,0.00,0,WeatherCatV1.21B27,2013-08-22 04:51:00,
2013-08-21 22:56:00,82.4,36.0,29.76,SE,130,5.0,11.0,19,0.00,,,0.00,0,WeatherCatV1.21B27,2013-08-22 04:56:00,
2013-08-21 23:01:00,82.2,35.8,29.76,SE,134,7.0,9.0,19,0.00,,,0.00,0,WeatherCatV1.21B27,2013-08-22 05:01:00,
2013-08-21 23:06:00,81.9,35.6,29.76,SSE,150,7.0,11.0,19,0.00,,,0.00,0,WeatherCatV1.21B27,2013-08-22 05:06:00,
2013-08-21 23:11:00,81.8,35.5,29.77,SE,126,7.0,11.0,19,0.00,,,0.00,0,WeatherCatV1.21B27,2013-08-22 05:11:00,
2013-08-21 23:16:00,81.7,35.4,29.77,ESE,113,9.0,11.0,19,0.00,,,0.00,0,WeatherCatV1.21B27,2013-08-22 05:16:00,
2013-08-21 23:21:00,81.6,36.6,29.77,ESE,119,4.0,6.0,20,0.00,,,0.00,0,WeatherCatV1.21B27,2013-08-22 05:21:00,
2013-08-21 23:26:00,81.5,36.5,29.77,ESE,119,5.0,8.0,20,0.00,,,0.00,0,WeatherCatV1.21B27,2013-08-22 05:26:00,
2013-08-21 23:31:00,81.3,36.4,29.77,ESE,105,4.0,8.0,20,0.00,,,0.00,0,WeatherCatV1.21B27,2013-08-22 05:31:00,
2013-08-21 23:36:00,81.2,36.3,29.77,SE,127,9.0,10.0,20,0.00,,,0.00,0,WeatherCatV1.21B27,2013-08-22 05:36:00,
2013-08-21 23:41:00,81.3,36.4,29.77,ESE,103,11.0,11.0,20,0.00,,,0.00,0,WeatherCatV1.21B27,2013-08-22 05:41:00,
2013-08-21 23:46:00,81.4,36.5,29.77,ESE,116,11.0,14.0,20,0.00,,,0.00,0,WeatherCatV1.21B27,2013-08-22 05:46:00,
2013-08-21 23:51:00,81.5,37.8,29.77,ESE,107,6.0,14.0,21,0.00,,,0.00,0,WeatherCatV1.21B27,2013-08-22 05:51:00,
2013-08-21 23:56:00,81.4,37.7,29.77,ESE,123,13.0,13.0,21,0.00,,,0.00,0,WeatherCatV1.21B27,2013-08-22 05:56:00,